Regional Weather Roundup
Issued by NWS Wakefield, VA

Home | Current Version | Previous Version | Graphics & Text | Print | Product List | Glossary On
Versions: 1 2 3 4 5 6 7 8 9 10 11 12 13 14 15 16 17 18 19 20 21 22 23 24 25 26 27
000
ASUS41 KAKQ 270215
RWRAKQ

REGIONAL WEATHER ROUNDUP
NATIONAL WEATHER SERVICE WAKEFIELD VA
1000 PM EDT THU MAY 26 2016

Note: "fair" indicates few or no clouds below 12,000 feet with no
significant weather and/or obstructions to visibility. * = Denotes
station may not report precipitation (e.g., rain,snow,etc.),
thunder or fog.

VAZ042-051-052>054-056-270300-
NORTHERN VIRGINIA

CITY           SKY/WX    TMP DP  RH WIND       PRES   REMARKS
WASH NATIONAL  FAIR      76  65  68 S9        30.03R
DULLES         FAIR      79  63  57 S6        30.03R
FORT BELVOIR   FAIR      71  66  85 CALM      30.03R
QUANTICO       FAIR      76  66  71 SW7       30.04R
FREDERICKSBRG* NOT AVBL
STAFFORD*      FAIR      70  66  86 CALM      30.08R
WARRENTON      FAIR      73  62  69 SE3       30.04R
CULPEPER*      FAIR      72  68  87 SW3       30.05R
MANASSAS*      CLEAR     73  66  78 CALM      30.03R
LEESBURG*      FAIR      79  68  69 SW12      30.04R
WINCHESTER     MOCLDY    70  68  94 CALM      30.05R
FRONT ROYAL*   CLOUDY    72  66  83 CALM      30.05R
LURAY*         MOCLDY    75  63  64 SW7       30.06S
$$

VAZ048-049-060>072-079>083-270300-
CENTRAL AND SOUTH CENTRAL VIRGINIA

CITY           SKY/WX    TMP DP  RH WIND       PRES   REMARKS
RICHMOND       FAIR      73  64  73 S7        30.06R
CHESTERFIELD*  FAIR      73  55  53 S5        30.08R
PETERSBURG*    FAIR      70  70 100 CALM      30.08R
HANOVER        FAIR      77  61  57 VRB3      30.07R
TAPPAHANNOCK*  FAIR      76  62  61 CALM      30.07R
QUINTON*       FAIR      72  67  84 MISG      30.06R
CHARLOTTSVILLE FAIR      75  63  66 SW3       30.06R
GORDONSVILLE*  FAIR      71  67  89 CALM      30.05R
ORANGE*        FAIR      73  64  73 CALM      30.07R
LOUISA*        FAIR      77  68  73 SW5       30.05R
BUMPASS*       FAIR      73  65  77 CALM      30.05R
FARMVILLE*     FAIR      73  66  79 CALM      30.06R
CREWE*         FAIR      71  71 100 CALM      30.07R
FORT PICKETT*  NOT AVBL
CHASE CITY*    FAIR      72  67  86 CALM      30.09R
CLARKSVILLE*   FAIR      70  68  94 CALM      30.08R
SOUTH HILL*    FAIR      69  67  93 CALM      30.14S
LAWRENCEVILLE* FAIR      74  65  73 CALM      30.09R
EMPORIA*       CLOUDY    70  68  94 CALM      30.10R
$$

VAZ088>098-270300-
SOUTHEAST VIRGINIA

CITY           SKY/WX    TMP DP  RH WIND       PRES   REMARKS
NORFOLK        FAIR      77  61  57 S13       30.10R
VIRGINIA BEACH FAIR      79  63  57 S12       30.11R
NORFOLK NAVAL  FAIR      78  62  57 S9G21     30.12R
WEST POINT*    FAIR      74  64  69 CALM      30.08S
SALUDA*        FAIR      74  66  74 S7        30.07R
NEWPORT NEWS   FAIR      79  65  62 S13       30.09R
LANGLEY AFB    FAIR      78  64  62 S15       30.10R
FORT EUSTIS    FAIR      77  67  70 S9        30.07R
WILLIAMSBURG*  FAIR      73  66  78 S7        30.09R
HR EXEC AP*    FAIR     N/A N/A N/A S10G17    30.13R
FRANKLIN*      FAIR      76  65  69 S9        30.11R
US460-WAKEFLD  FAIR      75  63  66 S5        30.09R
$$

VAZ020-022-025-037-045-270300-
WEST CENTRAL AND SOUTHWEST VIRGINIA

CITY           SKY/WX    TMP DP  RH WIND       PRES   REMARKS
STAUNTON*      MOCLDY    69  63  81 S3        30.11R
WAYNESBORO*    CLOUDY    73  61  67 SW6       30.11R
HOT SPRINGS VA FAIR      63  59  86 SW10      30.19S
LYNCHBURG      FAIR      68  64  87 CALM      30.11R
DANVILLE       FAIR      71  64  78 CALM      30.09R
SOUTH BOSTON*  FAIR      74  68  83 CALM      30.08R
MARTINSVILLE   FAIR      64  62  96 CALM      30.13S
ROANOKE        MOCLDY    73  67  81 E5        30.12R
BLACKSBURG     FAIR      66  63  92 CALM      30.18R
DUBLIN*        FAIR      69  64  82 CALM      30.16S
MARION*        FAIR      66  62  85 CALM      30.19S
HILLSVILLE*    FAIR      68  61  78 CALM      30.17F
RICHLANDS*     FAIR      67  55  65 SW3       30.16F
WISE*          FAIR      64  59  82 S3        30.16F
ABINGDON*      FAIR      65  63  91 CALM      30.14F
$$

MDZ021>025-VAZ099-100-270300-
SOUTHERN MARYLAND AND THE DELMARVA PENINSULA

CITY           SKY/WX    TMP DP  RH WIND       PRES   REMARKS
PATUXENT RIVER PTCLDY    77  60  55 S7        30.05R
BAY BRIDGE APT CLEAR     77  64  65 S14       30.04R
LEONARDTOWN    CLEAR     75  61  60 SE6       30.07R
DOVER          CLEAR     74  68  82 S7        30.05R
GEORGETOWN     CLEAR     74  62  66 S10       30.08R
EASTON         CLEAR     79  68  69 S10G16    30.09R
CAMBRIDGE      CLEAR     73  64  73 S8        30.06S
SALISBURY      CLEAR     73  61  65 S8        30.08S
OCEAN CITY     CLEAR     71  62  73 SW8       30.10R
WALLOPS ISLAND FAIR      70  64  81 S15       30.11R
ACCOMACK*      FAIR      72  63  73 S9        30.10R
$$

NCZ012>017-030>032-270300-
NORTH CENTRAL AND EASTERN NORTH CAROLINA

CITY           SKY/WX    TMP DP  RH WIND       PRES   REMARKS
ROANOKE RAPIDS FAIR      77  63  61 S7        30.10R
RALEIGH        PTCLDY    77  62  59 S3        30.11R
ELIZABETH CITY CLEAR     73  66  78 S9        30.13R
AHOSKIE*       CLEAR     74  65  73 S6        30.12R
EDENTON*       CLEAR    N/A N/A N/A S12       30.14R
CURRITUCK*     CLEAR     75  66  75 S6        30.13R
KILL DEVIL HLS CLEAR     72  64  75 SW7       30.14R
MANTEO         NOT AVBL
CAPE HATTERAS  CLEAR     73  65  75 SW9       30.16R
TARBORO*       MOCLDY    78  66  67 S7        30.13R
GOLDSBORO      NOT AVBL
WASHINGTON     CLEAR     73  63  71 S7        30.14R
GREENVILLE     CLEAR     75  63  64 S13       30.14R
NEW BERN       CLEAR     71  64  78 S5        30.17R
WILMINGTON     CLEAR     72  63  73 S6        30.16R
$$

VAZ048-270300-
ELSEWHERE

CITY           SKY/WX    TMP DP  RH WIND       PRES   REMARKS
HARRISBURG PA  MOCLDY    71  65  81 SE5       30.01R
BALTIMORE      MOCLDY    76  63  64 SE5       30.03R
ANNAPOLIS      CLEAR     74  64  71 S13       30.04R
ANDREWS AFB    FAIR      75  63  66 S8        30.04R
PHILADELPHIA   PTCLDY    76  55  48 SE6       30.05R
HENDERSON NC   CLEAR     72  63  73 S6        30.10R
GREENSBORO     PTCLDY    76  62  62 S5        30.10R
ROCKY MOUNT    MOCLDY    77  67  71 S7        30.12R
$$

VAZ100-270300-
MARINE

STATION/POSITION TIME  TEMP    WIND        PRES    WAVE   SWELL
                       AIR SEA DIR/SP/G            HT/PER HT/PER
                 (UTC) (F)     (DEG/KT/KT) (MB)    (FT/S) (FT/S)
BRANDYWINE LGT   0100                      1017.9R
CAPE MAY NJ      0100                      1017.9R
LEWES DE         0100                      1018.1R
15NM E FENWICK I 0150   63 59              1019.1R   2/ 7
OCEAN-CITY-INLET 0100                      1019.4R
WACHAPREAGUE VA  0100                      1018.6R
THOMAS POINT MD  0200   74 66  160/ 17/ 18 1018.4R
GOOSES REEF MD   0200   70 65  160/ 14/ 16 1018.4R   2/ 3
COVE POINT MD    0100                      1017.8R
SOLOMONS ISLAND  0112      67                N/A
BISHOPS HEAD MD  0100                      1018.0R
PINEY POINT MD   0100          180/ 11/ 12   N/A
POTOMAC MD       0200   72 69  180/ 12/ 12 1017.1R   1/ 2
CAMBRIDGE MD     0100                      1016.8R
LEWISETTA VA     0100                      1017.2R
RAPPAHANNOCK LGT 0100                      1018.9R
STINGRAY PT      0200   71 67  170/ 10/ 12 1019.0R   1/ 3
YORK RVR RNG VA  0100                      1017.5R
YORKTOWN VA      0100                      1017.8R
JAMESTOWN VA     0200   77 72  160/  8/ 16   N/A     0
DOMINION TERM VA 0100                      1018.2R
KIPTOPEKE VA     0112      70                N/A
CHES BAY BRIDGE  0100                      1018.6R
CAPE HENRY VA    0124          190/ 14/ 18   N/A
CHESAPEAKE LGHT  0100   71     190/ 22/ 23 1019.2R
WILLOUBY STN VA  0100                      1019.4R
CAPE HENRY BUOY  0112      67                N/A     3/ 4
1ST LANDING BUOY 0200   75 69  190/ 14/ 17 1019.2R   2/ 3
CAPE CHARLES BUO 0126      68                N/A     3/ 4   2/ 8
OFFSHORE WE BUOY 0121      61                N/A     3/ 4   2/ 8
64NM E OF VA BCH 0150   64 59  200/ 10/ 10 1020.6R   3/ 4   2/ 8
DUCK PIER NC     0100                      1019.1R
44100 DUCK FRF   0124      66                N/A     2/10
44056 DUCK FRF   0111      65                N/A     2/ 8
OREGON INLET NC  0100                      1020.4R
HATTERAS NC      0100                      1020.5R
DIAMOND SHLS NC  0150   76 71  170/ 10/ 12 1021.2R   2/ 8   2/ 8
CAPEC1F1C2F2C3F3C4F4C5F5C6F6C7F7C8M1C9!



USA.gov is the U.S. government's official web portal to all federal, state and local government web resources and services.